Stations météo

réclame
Mon MeteoGroup
Finisterre, Espagne (8040): Température de l'air & dewpoint: 13.11.2017 18:00:00 - 19.11.2017 18:00:00 (CET)Finisterre, Espagne (8040): Vitesse du vent & gusts: 13.11.2017 18:00:00 - 19.11.2017 18:00:00 (CET)Finisterre, Espagne (8040): Direction du vent: 13.11.2017 18:00:00 - 19.11.2017 18:00:00 (CET)Finisterre, Espagne (8040): reduced air pressure: 13.11.2017 18:00:00 - 19.11.2017 18:00:00 (CET)Finisterre, Espagne (8040): visibility: 13.11.2017 18:00:00 - 19.11.2017 18:00:00 (CET)Finisterre, Espagne (8040): Ensoleillement: 13.11.2017 18:00:00 - 19.11.2017 18:00:00 (CET)Finisterre, Espagne (8040): Quantités de précipitations: 13.11.2017 18:00:00 - 19.11.2017 18:00:00 (CET)
Date & Time tt [°C] td [°C] ff [km/h] ff [knt] fx [km/h] fx [knt] dd ppp [hPa] vv [km] sd [min] rr [mm]
19.11.2017 18:00:00 15,6 6,5 3 2 7 4 NW 1021,1 14 49 0,0
19.11.2017 17:00:00 17,2 8,1 2 1 11 6 WSW 1020,8 20 58 0,0
19.11.2017 16:00:00 17,7 9,3 5 3 14 8 WSW 1020,5 13 60 0,0
19.11.2017 15:00:00 17,0 7,6 8 4 14 7 NW 1021,0 13 60 0,0
19.11.2017 14:00:00 19,1 10,9 2 1 11 6 W 1020,8 20 60 0,0
19.11.2017 13:00:00 17,9 10,3 5 3 10 5 SSW 1021,4 11 56 -
19.11.2017 12:00:00 17,4 10,8 4 2 10 5 SSW 1021,8 12 56 0,0
19.11.2017 11:00:00 15,9 6,1 0 0 5 3 N 1021,6 15 60 0,0
19.11.2017 10:00:00 14,8 7,1 2 1 5 3 WNW 1021,6 15 60 0,0
19.11.2017 09:00:00 13,4 6,5 6 3 11 6 NW 1021,2 16 5 0,0
19.11.2017 08:00:00 13,3 5,1 7 4 9 5 NW 1020,7 16 0 0,0
19.11.2017 07:00:00 13,6 5,3 5 3 8 5 NNW 1020,2 16 0 -
19.11.2017 06:00:00 13,8 5,5 7 4 8 5 WSW 1020,0 16 0 0,0
19.11.2017 05:00:00 14,5 6,5 6 3 8 5 W 1019,8 16 0 0,0
19.11.2017 04:00:00 14,7 7,7 5 3 8 5 WSW 1020,3 15 0 0,0
19.11.2017 03:00:00 15,1 7,6 6 4 8 4 WNW 1020,1 17 0 0,0
19.11.2017 02:00:00 15,4 7,4 5 3 9 5 NNW 1020,1 16 0 0,0
19.11.2017 01:00:00 15,4 7,0 6 3 7 4 N 1020,2 18 0 -
19.11.2017 00:00:00 15,1 6,4 4 2 6 3 WNW 1020,1 18 0 0,0
18.11.2017 23:00:00 15,3 6,5 0 0 10 5 N 1020,1 17 0 0,0
18.11.2017 22:00:00 15,2 7,3 9 5 11 6 SSE 1020,1 16 0 0,0
18.11.2017 21:00:00 15,4 7,4 8 5 12 7 SE 1020,1 16 0 0,0
18.11.2017 20:00:00 15,5 8,5 10 5 18 10 SE 1020,1 16 0 0,0
18.11.2017 19:00:00 15,5 9,8 5 3 13 7 SE 1020,0 14 0 -
18.11.2017 18:00:00 15,3 9,7 11 6 14 7 ENE 1020,0 13 49 0,0
18.11.2017 17:00:00 15,1 7,6 7 4 11 6 NE 1019,7 14 59 0,0
18.11.2017 16:00:00 14,7 7,0 5 3 8 4 NNE 1019,7 16 60 0,0
18.11.2017 15:00:00 14,3 7,6 5 3 11 6 NNE 1019,9 14 60 0,0
18.11.2017 14:00:00 17,2 9,2 3 1 10 5 S 1020,0 17 60 0,0
18.11.2017 13:00:00 16,3 8,0 4 2 13 7 S 1020,5 13 55 -
18.11.2017 12:00:00 15,9 6,5 4 2 9 5 WSW 1020,8 14 55 0,0
18.11.2017 11:00:00 14,7 8,1 3 2 10 6 SSW 1020,7 15 60 0,0
18.11.2017 10:00:00 12,7 5,8 1 1 6 4 SSW 1020,8 14 60 0,0
18.11.2017 09:00:00 12,2 4,6 3 2 12 7 S 1020,4 14 4 0,0
18.11.2017 08:00:00 13,0 3,9 7 4 13 7 ESE 1019,8 18 0 0,0
18.11.2017 07:00:00 12,8 4,3 8 5 25 13 SE 1019,5 16 0 -
18.11.2017 06:00:00 13,8 3,2 10 5 18 10 SE 1019,4 17 0 0,0
18.11.2017 05:00:00 13,7 3,9 9 5 12 7 SSE 1019,6 18 0 0,0
18.11.2017 04:00:00 14,3 3,4 3 2 13 7 NNE 1019,9 18 0 0,0
18.11.2017 03:00:00 14,1 5,1 5 3 18 10 NNE 1019,9 15 0 0,0
18.11.2017 02:00:00 13,9 4,8 13 7 30 16 E 1020,1 17 0 0,0
18.11.2017 01:00:00 14,2 5,3 4 2 9 5 ESE 1020,6 16 0 -
18.11.2017 00:00:00 14,4 5,5 3 1 14 8 S 1020,5 17 0 0,0
17.11.2017 23:00:00 14,4 6,7 6 4 13 7 ESE 1020,5 15 0 0,0
17.11.2017 22:00:00 14,1 7,1 7 4 21 11 ESE 1020,3 15 0 0,0
17.11.2017 21:00:00 14,0 7,6 14 8 34 19 ESE 1020,1 15 0 0,0
17.11.2017 20:00:00 13,3 8,5 25 13 34 19 E 1020,2 13 0 0,0
17.11.2017 19:00:00 14,0 8,7 16 9 23 12 E 1020,4 14 0 -
17.11.2017 18:00:00 14,3 9,3 18 10 26 14 E 1019,9 15 24 0,0
17.11.2017 17:00:00 15,0 9,8 14 7 22 12 E 1019,8 14 59 0,0
17.11.2017 16:00:00 14,9 10,0 10 5 18 10 ENE 1020,1 15 60 0,0
17.11.2017 15:00:00 15,2 9,9 13 7 18 10 NNE 1020,1 10 60 0,0
17.11.2017 14:00:00 15,2 9,9 7 4 11 6 NNE 1020,5 12 60 0,0
17.11.2017 13:00:00 16,1 8,8 3 2 13 7 W 1020,9 13 54 -
17.11.2017 12:00:00 15,8 7,6 7 4 17 9 ESE 1021,2 20 56 0,0
17.11.2017 11:00:00 14,1 6,4 12 6 32 18 E 1021,3 20 60 0,0
17.11.2017 10:00:00 13,2 5,8 24 13 35 19 E 1021,2 20 60 0,0
17.11.2017 09:00:00 12,4 5,3 22 12 40 22 E 1021,3 17 3 0,0
17.11.2017 08:00:00 12,5 5,0 24 13 43 23 E 1020,7 17 0 0,0
17.11.2017 07:00:00 12,4 4,8 31 17 54 29 E 1020,5 17 0 -
17.11.2017 06:00:00 12,3 5,3 31 17 45 24 E 1020,4 18 0 0,0
17.11.2017 05:00:00 12,3 5,6 24 13 40 22 E 1020,5 16 0 0,0
17.11.2017 04:00:00 12,4 6,7 29 16 42 23 E 1020,6 16 0 0,0
17.11.2017 03:00:00 13,1 5,0 24 13 36 19 E 1020,8 18 0 0,0
17.11.2017 02:00:00 13,8 4,3 23 13 40 22 E 1020,9 17 0 0,0
17.11.2017 01:00:00 13,0 5,5 24 13 44 24 E 1021,3 16 0 -
17.11.2017 00:00:00 13,1 5,9 30 16 45 24 E 1021,4 18 0 0,0
16.11.2017 23:00:00 12,5 7,1 28 15 45 24 E 1021,4 17 0 0,0
16.11.2017 22:00:00 11,6 8,4 27 15 42 23 ENE 1021,4 15 0 0,0
16.11.2017 21:00:00 11,2 8,9 28 15 42 23 ENE 1021,1 15 0 0,0
16.11.2017 20:00:00 11,4 8,9 27 15 41 22 NE 1021,3 12 0 0,0
16.11.2017 19:00:00 12,9 6,7 29 16 43 23 E 1021,1 16 0 -
16.11.2017 18:00:00 12,8 8,9 23 13 31 17 ENE 1020,7 14 42 0,0
16.11.2017 17:00:00 13,9 9,6 17 9 26 14 NE 1020,5 12 60 0,0
16.11.2017 16:00:00 14,6 10,8 14 8 23 13 NNE 1020,6 11 60 0,0
16.11.2017 15:00:00 14,5 10,3 13 7 21 12 NNE 1020,7 12 60 0,0
16.11.2017 14:00:00 14,1 8,5 8 5 10 5 NNE 1021,1 12 60 0,0
16.11.2017 13:00:00 14,6 8,8 4 2 11 6 NW 1021,3 10 55 -
16.11.2017 12:00:00 14,3 8,3 4 2 16 9 E 1021,7 14 56 0,0
16.11.2017 11:00:00 12,0 7,6 11 6 16 9 NE 1021,9 15 60 0,0
16.11.2017 10:00:00 11,1 8,0 14 8 16 9 NNE 1021,6 14 60 0,0
16.11.2017 09:00:00 10,6 8,7 12 7 15 8 NNE 1021,0 14 4 0,0
16.11.2017 08:00:00 10,4 8,8 14 8 15 8 N 1020,6 13 0 0,0
16.11.2017 07:00:00 10,6 8,9 13 7 15 8 NNE 1020,3 13 0 -
16.11.2017 06:00:00 11,0 8,3 9 5 13 7 NNW 1020,3 13 0 0,0
16.11.2017 05:00:00 11,4 8,9 4 2 7 4 N 1019,8 15 0 0,0
16.11.2017 04:00:00 11,4 8,8 5 3 10 5 NNE 1019,8 15 0 0,0
16.11.2017 03:00:00 11,2 8,1 6 4 10 5 NW 1020,0 15 0 0,0
16.11.2017 02:00:00 11,3 8,1 7 4 9 5 WNW 1019,9 15 0 0,0
16.11.2017 01:00:00 11,4 8,3 7 4 11 6 WNW 1020,0 15 0 -
16.11.2017 00:00:00 11,9 8,1 6 4 8 4 W 1019,9 15 0 0,0
15.11.2017 23:00:00 11,7 7,8 2 1 9 5 WSW 1020,0 16 0 0,0
15.11.2017 22:00:00 12,0 7,8 8 4 10 5 S 1019,8 16 0 0,0
15.11.2017 21:00:00 11,6 7,6 6 4 9 5 SSE 1019,9 15 0 0,0
15.11.2017 20:00:00 11,6 6,7 7 4 12 7 SE 1019,8 16 0 0,0
15.11.2017 19:00:00 11,8 6,7 9 5 13 7 SE 1019,7 15 0 -
15.11.2017 18:00:00 13,4 6,7 9 5 16 9 SSE 1019,3 14 47 0,0
15.11.2017 17:00:00 14,6 7,8 9 5 20 11 SSW 1019,0 20 59 0,0
15.11.2017 16:00:00 15,0 8,5 11 6 20 11 S 1018,8 14 60 0,0
15.11.2017 15:00:00 15,8 8,5 12 7 26 14 SSW 1019,0 14 60 0,0
15.11.2017 14:00:00 15,4 9,0 13 7 24 13 S 1019,2 16 60 0,0
15.11.2017 13:00:00 14,9 8,4 16 9 25 13 S 1019,8 15 54 -
15.11.2017 12:00:00 14,3 7,1 14 8 26 14 S 1020,2 15 57 0,0
15.11.2017 11:00:00 13,4 7,6 15 8 24 13 SE 1020,0 18 60 0,0
15.11.2017 10:00:00 12,3 8,5 16 9 20 11 S 1019,9 14 58 0,0
15.11.2017 09:00:00 10,9 6,2 12 6 24 13 S 1019,8 14 3 0,0
15.11.2017 08:00:00 10,4 6,4 17 9 24 13 S 1019,1 15 0 0,0
15.11.2017 07:00:00 11,2 5,3 18 10 23 12 S 1018,5 15 0 -
15.11.2017 06:00:00 11,0 5,9 16 8 20 11 S 1018,4 16 0 0,0
15.11.2017 05:00:00 11,2 5,8 10 5 13 7 SSW 1018,5 16 0 0,0
15.11.2017 04:00:00 11,1 5,6 9 5 10 6 SW 1018,6 16 0 0,0
15.11.2017 03:00:00 11,1 6,1 6 4 11 6 SSW 1018,7 16 0 0,0
15.11.2017 02:00:00 10,7 7,0 6 3 9 5 SSE 1018,7 16 0 0,0
15.11.2017 01:00:00 10,9 7,6 7 4 10 5 WNW 1019,2 15 0 -
15.11.2017 00:00:00 11,2 5,9 10 6 13 7 SSE 1019,0 16 0 0,0
14.11.2017 23:00:00 10,9 6,2 4 2 10 5 WNW 1019,5 17 0 0,0
14.11.2017 22:00:00 12,1 5,5 7 4 13 7 S 1019,4 16 0 0,0
14.11.2017 21:00:00 12,3 4,5 9 5 18 10 ESE 1019,2 16 0 0,0
14.11.2017 20:00:00 11,5 5,8 15 8 19 10 ENE 1019,6 16 0 0,0
14.11.2017 19:00:00 11,5 4,6 6 4 8 4 ENE 1019,6 16 0 -
14.11.2017 18:00:00 12,1 4,3 5 3 9 5 NNE 1019,7 16 48 0,0
14.11.2017 17:00:00 12,5 5,1 4 2 17 9 NE 1020,0 17 59 0,0
14.11.2017 16:00:00 12,2 5,6 10 5 23 12 NNW 1020,2 13 60 0,0
14.11.2017 15:00:00 13,0 5,9 12 6 22 12 NW 1020,7 13 60 0,0
14.11.2017 14:00:00 13,4 6,1 8 5 15 8 WNW 1021,2 13 60 0,0
14.11.2017 13:00:00 12,5 2,7 4 2 8 4 N 1021,6 15 53 -
14.11.2017 12:00:00 12,4 2,5 3 2 10 5 NE 1022,4 17 56 0,0
14.11.2017 11:00:00 11,6 2,3 5 3 17 9 N 1022,7 17 60 0,0
14.11.2017 10:00:00 11,0 2,1 14 8 24 13 ESE 1022,6 17 60 0,0
14.11.2017 09:00:00 9,9 1,5 16 9 29 16 E 1022,3 17 5 0,0
14.11.2017 08:00:00 9,4 1,3 22 12 34 18 E 1022,1 18 0 0,0
14.11.2017 07:00:00 8,8 1,7 24 13 37 20 E 1022,1 19 0 -
14.11.2017 06:00:00 8,8 1,7 29 16 54 29 E 1021,9 17 0 0,0
14.11.2017 05:00:00 8,5 1,9 40 22 64 35 E 1021,5 17 0 0,0
14.11.2017 04:00:00 8,8 1,9 38 20 60 33 E 1022,0 16 0 0,0
14.11.2017 03:00:00 8,9 2,3 39 21 66 35 E 1022,3 16 0 0,0
14.11.2017 02:00:00 9,2 2,1 41 22 61 33 E 1022,5 16 0 0,0
14.11.2017 01:00:00 9,2 2,5 31 17 61 33 ENE 1023,5 17 0 -
14.11.2017 00:00:00 9,3 2,7 24 13 67 36 E 1023,8 15 0 0,0
13.11.2017 23:00:00 9,7 2,5 30 16 58 31 E 1024,2 16 0 0,0
13.11.2017 22:00:00 9,2 3,6 26 14 48 26 ENE 1024,6 17 0 0,0
13.11.2017 21:00:00 9,2 4,5 24 13 57 31 NE 1024,8 15 0 0,0
13.11.2017 20:00:00 9,9 5,1 28 15 45 24 NE 1024,7 15 0 0,0
13.11.2017 19:00:00 10,4 6,4 27 14 46 25 NE 1024,9 12 0 -
13.11.2017 18:00:00 11,0 6,4 25 13 41 22 NNE 1024,9 12 45 0,0

tt = Température de l'air
td = dewpoint
ff = Vitesse du vent
fx = gusts
dd = Direction du vent
ppp = reduced air pressure
vv = visibility
sd = Ensoleillement
rr = Quantités de précipitations

stations d'obs. à proximité